[[{"header":{"parameterUnit":"m.s-1","parameterCategory":1,"la1":30.2991,"la2":30.254,"lo1":-89.0895,"lo2":-89.0444,"dy":0.0017,"dx":0.0017,"nx":28,"ny":28,"refTime":"2023-08-16T21:00:00:Z","depth":0,"parameterNumber":2,"parameterNumberName":"U-component_of_WINDS"},"data":[0,0,0,0,0,0,0,0,0,0,0,0,0,0,0,0,0,0,0,0,0,0,0,0,0,0,0,0,0,0,0,0,0,0,0,0,0,0,0,0,0,0,0,0,0,0,0,0,0,0,0,0,0,0,0,0,0,0,2.8014,2.8014,0,2.8098,2.8099,2.81,2.8101,2.81,2.8099,2.8098,2.819,2.8194,2.8197,0,0,0,0,0,0,0,0,0,0,0,0,0,2.7858,2.7861,2.8013,2.8015,2.8016,2.8098,2.8099,2.81,2.8101,2.81,2.8099,2.8097,2.8189,2.8193,2.8197,0,0,0,0,0,0,0,0,0,0,0,0,0,2.7933,2.7862,2.8013,2.8026,2.8028,2.8098,2.8099,2.8101,2.8102,2.81,2.8098,2.8097,2.8188,2.8193,2.8198,2.8262,0,0,2.8214,2.8216,0,0,0,0,0,0,0,0,2.7928,2.7938,2.8023,2.8025,2.8027,2.8087,2.8078,2.8155,2.8102,2.8074,2.8098,2.8096,2.8158,2.8165,2.8185,2.8267,2.8271,2.8214,2.8217,2.822,2.8221,0,0,0,0,0,0,0,2.7923,2.7935,2.8047,2.8024,2.8027,2.8029,2.8038,2.8093,2.8124,2.8076,2.8076,2.8086,2.8159,2.818,2.8187,2.8272,2.8214,2.8219,2.8222,2.8224,2.8413,2.8415,0,0,0,0,0,0,2.7915,2.793,2.8044,2.805,2.7973,2.8033,2.8043,2.807,2.8123,2.813,2.8087,2.8086,2.8172,2.8181,2.819,2.8271,2.822,2.8224,2.8227,2.8411,2.8413,2.8415,0,0,0,0,0,0,2.7912,2.7925,2.8041,2.799,2.8005,2.8038,2.8068,2.8072,2.8093,2.8132,2.8138,2.8103,2.8171,2.8183,2.8244,2.8274,2.8227,2.8231,2.8409,2.8412,2.8414,2.8431,0,0,0,0,0,0,2.7907,2.7924,2.7947,2.7991,2.8008,2.8092,2.8069,2.8075,2.8102,2.8101,2.8148,2.8154,2.817,2.8237,2.825,2.828,2.8236,2.8406,2.841,2.8414,2.8428,2.8434,2.8439,0,0,0,0,0,2.7901,2.795,2.7949,2.7962,2.8038,2.8094,2.8104,2.812,2.8104,2.8129,2.8154,2.8153,2.8268,2.8243,2.8258,2.829,2.8405,2.8409,2.8413,2.8425,2.8433,2.8439,0,0,0,0,0,0,2.7911,2.7956,2.7955,2.8018,2.8052,2.8094,2.8126,2.8127,2.8167,2.8165,2.8184,2.8195,2.8257,2.8279,2.8251,2.8356,2.8335,2.8342,2.8339,2.8346,2.8352,2.8346,2.824,0,0,0,0,0,2.792,2.796,2.7998,2.805,2.8067,2.8093,2.8118,2.8127,2.8164,2.8179,2.8208,2.8245,2.829,2.8319,2.8362,2.8431,2.8442,2.846,2.8466,2.847,2.8477,2.8516,2.8525,2.843,2.8429,2.8429,0,0,2.794,2.7969,2.7994,2.8052,2.808,2.8123,2.8105,2.8151,2.8184,2.8187,2.8246,2.8269,2.8312,2.8377,2.8408,2.8398,2.8506,2.8476,2.8479,2.8484,2.8522,2.8531,2.8539,2.8432,2.8432,2.8431,0,0,2.7998,2.8024,2.807,2.8098,2.8139,2.8156,2.8167,2.8209,2.8224,2.8283,2.8287,2.8327,2.8403,2.8433,2.8459,2.8529,2.853,2.8543,2.8573,2.8611,2.8618,2.8625,2.8652,2.8661,2.8549,2.8549,2.8549,0,2.8019,2.8082,2.8095,2.8141,2.8168,2.817,2.8218,2.8245,2.8299,2.8318,2.8306,2.8402,2.8431,2.8504,2.8521,2.8541,2.8556,2.8538,2.8616,2.8623,2.8629,2.8655,2.8665,2.855,2.855,2.855,2.855,0,2.8105,2.8149,2.8182,2.8232,2.8262,2.831,2.8332,2.8361,2.8367,2.8387,2.8448,2.8483,2.8533,2.8551,2.8559,2.8626,2.8619,2.8611,2.859,2.8639,2.8664,2.8674,2.8552,2.8552,2.8551,2.8551,0,0,2.8173,2.8229,2.8241,2.8265,2.831,2.8345,2.8393,2.844,2.8466,2.8503,2.8545,2.8609,2.8602,2.8631,2.8642,2.8675,2.873,2.8663,2.8665,2.8676,2.8808,2.8815,2.8826,2.873,2.8732,2.8734,2.8805,0,2.8238,2.8321,2.8334,2.8409,2.845,2.8453,2.8495,2.8528,2.8547,2.8587,2.8609,2.8654,2.864,2.8658,2.8691,2.8716,2.8757,2.8711,2.8772,2.8774,2.8762,2.8839,2.8846,2.8912,2.8815,2.8816,2.8817,0,2.8324,2.8362,2.844,2.848,2.8498,2.8535,2.858,2.8617,2.8656,2.8667,2.8699,2.8706,2.8758,2.8734,2.8806,2.8775,2.88,2.8817,2.882,2.8827,2.88,2.885,2.8933,2.8943,2.8832,2.8831,2.883,0,2.8368,2.8438,2.8494,2.8514,2.8561,2.8588,2.8609,2.8646,2.8674,2.8714,2.8732,2.8778,2.8804,2.8841,2.886,2.884,2.8932,2.8909,2.8945,2.8945,2.8966,2.8965,2.9056,2.898,2.898,2.8979,2.8979,0,2.844,2.8488,2.8515,2.8549,2.8603,2.8619,2.8673,2.8694,2.8726,2.8766,2.8771,2.8809,2.8832,2.8874,2.889,2.8949,2.896,2.8972,2.8976,2.8973,2.8972,2.8991,2.8988,2.8982,2.8981,2.8981,2.898,0,2.8499,2.8518,2.858,2.8619,2.863,2.8669,2.8704,2.8738,2.8756,2.8807,2.882,2.885,2.8899,2.8922,2.8984,2.8994,2.9062,2.9062,2.9048,2.905,2.9086,2.9082,2.9194,2.921,2.9122,2.9122,2.9123,0,2.8544,2.8581,2.8624,2.865,2.8672,2.8715,2.8743,2.8759,2.8789,2.8835,2.8865,2.8914,2.8954,2.9033,2.9062,2.9109,2.9111,2.9147,2.9119,2.9114,2.9114,2.9112,2.9117,2.9153,2.9154,2.9155,2.9155,0,2.8623,2.8631,2.867,2.8714,2.8747,2.8782,2.8817,2.8838,2.8861,2.8894,2.8943,2.8974,2.9036,2.9086,2.9135,2.9159,2.9162,2.9163,2.9175,2.9172,2.9164,2.917,2.9064,2.9161,2.9161,2.916,2.916,2.916,2.8678,2.8711,2.8747,2.8791,2.8818,2.885,2.8885,2.8907,2.8948,2.8999,2.9006,2.906,2.9098,2.9164,2.9189,2.9233,2.9225,2.924,2.9245,2.9249,2.9252,2.9155,2.9242,2.9241,2.9241,2.9241,2.9241,0,2.8759,2.8782,2.8822,2.8869,2.8904,2.8901,2.8939,2.8969,2.9016,2.905,2.9089,2.9147,2.9194,2.9226,2.9275,2.9303,2.9306,2.9316,2.9315,2.9321,2.9255,2.9241,2.9313,2.9313,2.9313,2.9313,2.9313,2.9313,2.8805,2.8861,2.8873,2.8943,2.8966,2.9017,2.9039,2.907,2.9097,2.9161,2.92,2.9219,2.9253,2.9304,2.9349,2.9357,2.9375,2.9386,2.9394,2.9333,2.9325,2.9318,2.9305,2.9389,2.9389,2.9456,2.9457,2.9457]},{"header":{"parameterUnit":"m.s-1","parameterCategory":1,"la1":30.2991,"la2":30.254,"lo1":-89.0895,"lo2":-89.0444,"dy":0.0017,"dx":0.0017,"nx":28,"ny":28,"refTime":"2023-08-16T21:00:00:Z","depth":0,"parameterNumber":3,"parameterNumberName":"V-component_of_WINDS"},"data":[0,0,0,0,0,0,0,0,0,0,0,0,0,0,0,0,0,0,0,0,0,0,0,0,0,0,0,0,0,0,0,0,0,0,0,0,0,0,0,0,0,0,0,0,0,0,0,0,0,0,0,0,0,0,0,0,0,0,1.908,1.908,0,1.9078,1.9078,1.9078,1.906,1.906,1.9059,1.9059,1.9055,1.9055,1.9055,0,0,0,0,0,0,0,0,0,0,0,0,0,1.9065,1.9065,1.908,1.908,1.908,1.9078,1.9078,1.9078,1.906,1.906,1.9059,1.9059,1.9054,1.9055,1.9055,0,0,0,0,0,0,0,0,0,0,0,0,0,1.9068,1.9065,1.908,1.9071,1.907,1.9078,1.9078,1.9078,1.9061,1.906,1.9059,1.9059,1.9054,1.9055,1.9055,1.9071,0,0,1.9056,1.9057,0,0,0,0,0,0,0,0,1.9068,1.9068,1.9072,1.9072,1.9071,1.9069,1.9071,1.9075,1.9061,1.9064,1.9059,1.9058,1.906,1.906,1.9061,1.907,1.907,1.9057,1.9057,1.9057,1.9057,0,0,0,0,0,0,0,1.9067,1.9068,1.9079,1.9072,1.9071,1.9066,1.9065,1.9072,1.9065,1.9064,1.9063,1.9063,1.9059,1.906,1.906,1.907,1.9057,1.9057,1.9057,1.9057,1.9089,1.9089,0,0,0,0,0,0,1.9069,1.9068,1.9079,1.9079,1.9068,1.9067,1.9066,1.907,1.9065,1.9064,1.9063,1.9062,1.906,1.906,1.906,1.9075,1.9057,1.9057,1.9058,1.9088,1.9089,1.909,0,0,0,0,0,0,1.9069,1.907,1.9079,1.9073,1.9074,1.9068,1.9072,1.907,1.9071,1.9065,1.9063,1.9066,1.9059,1.906,1.9067,1.9075,1.9058,1.9058,1.9088,1.9088,1.9089,1.9108,0,0,0,0,0,0,1.9068,1.907,1.9077,1.9074,1.9074,1.9088,1.9072,1.9071,1.9073,1.9071,1.9067,1.9066,1.9059,1.9067,1.9068,1.9075,1.9058,1.9087,1.9088,1.9089,1.9106,1.9109,1.9112,0,0,0,0,0,1.9068,1.9083,1.9078,1.9079,1.9083,1.9089,1.9089,1.9082,1.9073,1.9079,1.9074,1.9066,1.9074,1.9068,1.9069,1.9077,1.9086,1.9088,1.9089,1.9105,1.9109,1.9112,0,0,0,0,0,0,1.9087,1.9082,1.9077,1.9091,1.909,1.9086,1.9093,1.9086,1.9087,1.9085,1.9075,1.9074,1.9083,1.9081,1.9074,1.9089,1.9079,1.908,1.9091,1.9094,1.9096,1.9096,1.9059,0,0,0,0,0,1.9093,1.9099,1.9094,1.9107,1.9107,1.91,1.9102,1.9096,1.9095,1.9095,1.9091,1.9089,1.9091,1.9092,1.9094,1.9106,1.9104,1.9112,1.9114,1.9116,1.9117,1.9121,1.9123,1.9094,1.9094,1.9094,0,0,1.9106,1.9104,1.9108,1.9111,1.911,1.9114,1.91,1.9107,1.9109,1.9095,1.9102,1.9099,1.9096,1.9105,1.9109,1.9104,1.9125,1.9118,1.912,1.912,1.9122,1.9125,1.9127,1.9095,1.9095,1.9094,0,0,1.913,1.913,1.914,1.9138,1.9137,1.9132,1.9134,1.913,1.9127,1.9134,1.9123,1.9125,1.913,1.9127,1.9127,1.9147,1.9138,1.9148,1.9161,1.9164,1.9166,1.9168,1.9173,1.9176,1.9149,1.9149,1.9149,0,1.9145,1.9153,1.9145,1.9151,1.9152,1.914,1.9148,1.9147,1.9146,1.9145,1.9139,1.9142,1.914,1.9147,1.9152,1.9152,1.9153,1.9148,1.9167,1.9169,1.917,1.9175,1.9177,1.915,1.915,1.915,1.915,0,1.917,1.9176,1.9183,1.9182,1.9183,1.9191,1.9182,1.9184,1.9178,1.9173,1.9178,1.9174,1.9173,1.9175,1.9169,1.918,1.9177,1.9169,1.9157,1.9174,1.9178,1.918,1.9152,1.9151,1.9151,1.9151,0,0,1.9207,1.9201,1.9203,1.9201,1.9197,1.9201,1.9206,1.9206,1.9206,1.9205,1.9208,1.9211,1.9203,1.9202,1.9195,1.9199,1.9212,1.919,1.919,1.9192,1.9221,1.9226,1.9228,1.9206,1.9206,1.9207,1.9221,0,1.9229,1.9239,1.9231,1.9241,1.9244,1.9232,1.9236,1.9233,1.9228,1.9229,1.9223,1.9224,1.9215,1.9214,1.9216,1.921,1.9217,1.9209,1.9207,1.9207,1.9207,1.9231,1.9237,1.925,1.9223,1.9223,1.9223,0,1.9256,1.9255,1.9266,1.9259,1.926,1.9264,1.9262,1.9263,1.9259,1.9255,1.9253,1.9244,1.9247,1.9236,1.9239,1.9233,1.9231,1.9228,1.9228,1.9227,1.9215,1.9228,1.9255,1.9256,1.9226,1.9226,1.9226,0,1.9278,1.9281,1.9287,1.9286,1.9279,1.9281,1.9278,1.9273,1.9272,1.927,1.9269,1.9267,1.9265,1.9263,1.9253,1.9247,1.9256,1.9245,1.9251,1.9251,1.9252,1.9252,1.9277,1.9254,1.9254,1.9254,1.9254,0,1.9302,1.9309,1.9297,1.93,1.9306,1.9296,1.9302,1.9297,1.9293,1.9294,1.9283,1.9284,1.9272,1.9271,1.9263,1.9265,1.9265,1.926,1.9257,1.926,1.926,1.9258,1.9256,1.9254,1.9254,1.9254,1.9254,0,1.9329,1.9321,1.9326,1.9319,1.9317,1.9321,1.9314,1.9316,1.9309,1.9311,1.931,1.93,1.9298,1.9288,1.9285,1.9279,1.9283,1.9279,1.9284,1.9283,1.9288,1.9287,1.9311,1.9313,1.929,1.929,1.9291,0,1.9343,1.9348,1.934,1.934,1.9338,1.9338,1.9337,1.9327,1.9326,1.932,1.9322,1.932,1.9317,1.9314,1.9305,1.9301,1.9297,1.9305,1.9296,1.9298,1.9295,1.9294,1.9293,1.9307,1.9307,1.9308,1.9308,0,1.937,1.9365,1.9365,1.9362,1.9361,1.9359,1.9356,1.9356,1.9345,1.9344,1.9342,1.934,1.9335,1.9332,1.9326,1.9321,1.9312,1.9311,1.9312,1.9314,1.9316,1.9313,1.9288,1.931,1.931,1.931,1.931,1.931,1.9389,1.9392,1.9386,1.9385,1.9382,1.9378,1.9379,1.9373,1.9371,1.9367,1.9361,1.9359,1.9352,1.9343,1.9339,1.9336,1.9331,1.9333,1.9333,1.9333,1.9334,1.9317,1.9335,1.9335,1.9335,1.9335,1.9335,0,1.9413,1.9409,1.9408,1.9403,1.9402,1.9394,1.939,1.9389,1.9388,1.9382,1.9379,1.9376,1.9372,1.9363,1.9358,1.9357,1.9353,1.9356,1.9355,1.9354,1.934,1.9339,1.936,1.936,1.936,1.936,1.936,1.936,1.9425,1.9428,1.9423,1.9423,1.9418,1.9417,1.9415,1.9411,1.9406,1.9403,1.94,1.9394,1.9386,1.938,1.9376,1.9373,1.9371,1.9375,1.9371,1.9358,1.9355,1.9353,1.9352,1.9375,1.9375,1.9385,1.9385,1.9386]}]]